WBANNO,USDM_WEEK,LONGITUDE,LATITUDE,SMVWC_5_CM_MEAN,SMANOM_5_CM_MEAN,SMPERC_5_CM_30COUNTS,SMPERC_5_CM_70COUNTS,SMVWC_10_CM_MEAN,SMANOM_10_CM_MEAN,SMPERC_10_CM_30COUNTS,SMPERC_10_CM_70COUNTS,SMVWC_20_CM_MEAN,SMANOM_20_CM_MEAN,SMPERC_20_CM_30COUNTS,SMPERC_20_CM_70COUNTS,SMVWC_50_CM_MEAN,SMANOM_50_CM_MEAN,SMPERC_50_CM_30COUNTS,SMPERC_50_CM_70COUNTS,SMVWC_100_CM_MEAN,SMANOM_100_CM_MEAN,SMPERC_100_CM_30COUNTS,SMPERC_100_CM_70COUNTS,SMVWC_TOP_CM_MEAN,SMANOM_TOP_CM_MEAN,SMPERC_TOP_CM_30COUNTS,SMPERC_TOP_CM_70COUNTS,SMVWC_COLUMN_CM_MEAN,SMANOM_COLUMN_CM_MEAN,SMPERC_COLUMN_CM_30COUNTS,SMPERC_COLUMN_CM_70COUNTS
12987,20100225,-98.06,26.53,,,,,,,,,,,,,,,,,,,,,,,,,,,,
12987,20100226,-98.06,26.53,,,,,,,,,,,,,,,,,,,,,,,,,,,,
12987,20100227,-98.06,26.53,,,,,,,,,,,,,,,,,,,,,,,,,,,,
12987,20100228,-98.06,26.53,,,,,,,,,,,,,,,,,,,,,,,,,,,,
12987,20100301,-98.06,26.53,,,,,,,,,,,,,,,,,,,,,,,,,,,,
12987,20100302,-98.06,26.53,,,,,,,,,,,,,,,,,,,,,,,,,,,,
12987,20100303,-98.06,26.53,0.141,0.35,0,0.626,0.159,0.35,0,0.787,0.16,0.03,0,0,0.22,0.87,0,1,0.291,0.73,0,1,0.15,0.35,0,0.49,0.194,0.64,0,1
12987,20100304,-98.06,26.53,0.141,0.36,0,0.613,0.159,0.35,0,0.768,0.16,0.02,0,0,0.22,0.88,0,1,0.291,0.73,0,1,0.15,0.36,0,0.482,0.194,0.63,0,1
12987,20100305,-98.06,26.53,0.141,0.37,0,0.649,0.159,0.36,0,0.726,0.16,0.01,0,0,0.219,0.9,0,1,0.29,0.72,0,1,0.15,0.37,0,0.464,0.194,0.63,0,1
12987,20100306,-98.06,26.53,0.14,0.36,0,0.548,0.158,0.35,0,0.631,0.159,0,0,0,0.219,0.91,0,1,0.29,0.71,0,1,0.149,0.36,0,0.345,0.193,0.61,0,1
12987,20100307,-98.06,26.53,0.14,0.36,0,0.446,0.158,0.35,0,0.595,0.159,-0.01,0,0,0.219,0.9,0,1,0.289,0.71,0,1,0.149,0.37,0,0.304,0.193,0.6,0,1
12987,20100308,-98.06,26.53,0.139,0.35,0,0.381,0.158,0.36,0,0.619,0.159,-0.01,0,0,0.218,0.89,0,1,0.289,0.7,0,1,0.149,0.37,0,0.351,0.193,0.59,0,1
12987,20100309,-98.06,26.53,0.139,0.35,0,0.327,0.157,0.36,0,0.631,0.159,-0.01,0,0,0.218,0.88,0,1,0.289,0.7,0,1,0.148,0.38,0,0.351,0.192,0.59,0,1
12987,20100310,-98.06,26.53,0.139,0.35,0,0.363,0.158,0.37,0,0.685,0.159,-0.01,0,0,0.218,0.88,0,1,0.288,0.7,0,1,0.148,0.39,0,0.464,0.192,0.58,0,1
12987,20100311,-98.06,26.53,0.138,0.36,0,0.458,0.158,0.38,0,0.762,0.159,0,0,0,0.218,0.87,0,1,0.288,0.7,0,1,0.148,0.41,0,0.577,0.192,0.58,0,1
12987,20100312,-98.06,26.53,0.138,0.36,0,0.476,0.158,0.4,0,0.863,0.159,0.02,0,0,0.218,0.87,0,1,0.288,0.71,0,1,0.148,0.42,0,0.714,0.192,0.58,0,1
12987,20100313,-98.06,26.53,0.138,0.36,0,0.476,0.158,0.41,0,0.964,0.159,0.03,0,0,0.218,0.86,0,1,0.288,0.71,0,1,0.148,0.43,0,0.845,0.192,0.57,0,1
12987,20100314,-98.06,26.53,0.137,0.35,0,0.452,0.157,0.42,0,1,0.16,0.05,0,0,0.217,0.85,0,1,0.288,0.71,0,1,0.147,0.44,0,0.899,0.192,0.58,0,1
12987,20100315,-98.06,26.53,0.136,0.33,0,0.393,0.157,0.43,0,1,0.16,0.08,0,0,0.217,0.85,0,1,0.287,0.71,0,1,0.146,0.44,0,0.827,0.192,0.58,0,1
12987,20100316,-98.06,26.53,0.134,0.31,0,0.304,0.156,0.44,0,1,0.161,0.1,0,0,0.217,0.84,0,1,0.287,0.72,0,1,0.145,0.43,0,0.738,0.191,0.58,0,1
12987,20100317,-98.06,26.53,0.132,0.29,0,0.185,0.155,0.44,0,1,0.161,0.11,0,0,0.217,0.83,0,1,0.287,0.73,0,1,0.144,0.43,0,0.655,0.19,0.59,0,1
12987,20100318,-98.06,26.53,0.131,0.27,0,0.054,0.154,0.44,0,1,0.161,0.12,0,0,0.216,0.82,0,1,0.287,0.73,0,1,0.142,0.42,0,0.631,0.19,0.6,0,1
12987,20100319,-98.06,26.53,0.13,0.26,0,0,0.153,0.44,0,1,0.161,0.12,0,0,0.216,0.81,0,1,0.286,0.73,0,1,0.141,0.42,0,0.631,0.189,0.61,0,1
12987,20100320,-98.06,26.53,0.129,0.25,0,0,0.152,0.45,0,1,0.161,0.12,0,0,0.215,0.8,0,1,0.285,0.74,0,1,0.14,0.42,0,0.631,0.188,0.62,0,1
12987,20100321,-98.06,26.53,0.127,0.24,0,0,0.151,0.45,0,1,0.16,0.12,0,0,0.215,0.79,0,1,0.285,0.74,0,1,0.139,0.43,0,0.631,0.188,0.64,0,1
12987,20100322,-98.06,26.53,0.126,0.23,0,0,0.15,0.45,0,1,0.159,0.1,0,0,0.214,0.77,0,1,0.284,0.75,0,1,0.138,0.43,0,0.673,0.187,0.65,0,1
12987,20100323,-98.06,26.53,0.125,0.22,0,0,0.149,0.46,0,1,0.158,0.08,0,0,0.213,0.75,0,1,0.284,0.75,0,1,0.137,0.43,0,0.708,0.186,0.66,0,1
12987,20100324,-98.06,26.53,0.124,0.2,0,0,0.148,0.46,0,1,0.158,0.07,0,0,0.213,0.74,0,1,0.283,0.75,0,1,0.136,0.43,0,0.708,0.185,0.67,0,1
12987,20100325,-98.06,26.53,0.122,0.17,0,0,0.147,0.47,0,1,0.157,0.06,0,0,0.212,0.72,0,1,0.282,0.76,0,1,0.135,0.44,0,0.726,0.184,0.68,0,1
12987,20100326,-98.06,26.53,0.12,0.13,0,0,0.146,0.48,0,1,0.156,0.06,0,0,0.212,0.71,0,1,0.282,0.77,0,1,0.133,0.43,0,0.708,0.183,0.68,0,1
12987,20100327,-98.06,26.53,0.118,0.09,0,0,0.145,0.48,0,1,0.155,0.05,0,0,0.211,0.7,0,1,0.281,0.77,0,1,0.131,0.42,0,0.637,0.182,0.66,0,1
12987,20100328,-98.06,26.53,0.115,0.05,0,0,0.144,0.48,0,1,0.155,0.04,0,0,0.211,0.68,0,1,0.281,0.78,0,1,0.13,0.41,0,0.571,0.181,0.65,0,1
12987,20100329,-98.06,26.53,0.112,0.01,0,0,0.143,0.49,0,1,0.154,0.04,0,0,0.21,0.66,0,1,0.28,0.79,0,1,0.127,0.4,0,0.494,0.18,0.63,0,1
12987,20100330,-98.06,26.53,0.109,-0.04,0,0,0.141,0.48,0,1,0.153,0.04,0,0,0.21,0.64,0,1,0.28,0.8,0,1,0.125,0.37,0,0.429,0.179,0.61,0,1
12987,20100331,-98.06,26.53,0.106,-0.09,0,0,0.139,0.46,0,1,0.152,0.04,0,0,0.209,0.62,0,1,0.279,0.8,0,1,0.123,0.34,0,0.375,0.177,0.59,0,1
12987,20100401,-98.06,26.53,0.103,-0.13,0,0,0.137,0.44,0,1,0.151,0.03,0,0,0.209,0.6,0,1,0.279,0.81,0,1,0.12,0.3,0,0.238,0.176,0.56,0,1
12987,20100402,-98.06,26.53,0.1,-0.16,0,0,0.134,0.41,0,0.994,0.151,0.02,0,0,0.208,0.58,0,1,0.278,0.81,0,1,0.117,0.26,0,0.113,0.174,0.53,0,1
12987,20100403,-98.06,26.53,0.098,-0.18,0,0,0.132,0.39,0,0.994,0.15,0.01,0,0,0.208,0.55,0,1,0.277,0.81,0,1,0.115,0.22,0,0.042,0.173,0.5,0,1
12987,20100404,-98.06,26.53,0.096,-0.2,0,0,0.13,0.36,0,0.976,0.149,0,0,0,0.207,0.54,0,1,0.277,0.81,0,1,0.113,0.18,0,0,0.172,0.47,0,1
12987,20100405,-98.06,26.53,0.095,-0.2,0,0,0.128,0.33,0,0.958,0.148,0,0,0,0.207,0.52,0,1,0.276,0.8,0,1,0.111,0.16,0,0,0.171,0.45,0,0.994
12987,20100406,-98.06,26.53,0.094,-0.2,0,0,0.126,0.31,0,0.929,0.147,-0.01,0,0,0.206,0.5,0,1,0.275,0.8,0,1,0.11,0.13,0,0,0.17,0.43,0,0.97
12987,20100407,-98.06,26.53,0.093,-0.19,0,0,0.125,0.29,0,0.804,0.146,-0.02,0,0,0.205,0.48,0,0.994,0.274,0.79,0,1,0.109,0.11,0,0,0.168,0.41,0,0.869
12987,20100408,-98.06,26.53,0.092,-0.19,0,0,0.123,0.27,0,0.661,0.145,-0.02,0,0,0.204,0.46,0,0.994,0.273,0.79,0,1,0.107,0.09,0,0,0.167,0.39,0,0.804
12987,20100409,-98.06,26.53,0.091,-0.19,0,0,0.121,0.25,0,0.524,0.143,-0.03,0,0,0.203,0.45,0,0.982,0.272,0.78,0,1,0.106,0.07,0,0,0.166,0.38,0,0.673
12987,20100410,-98.06,26.53,0.09,-0.21,0,0,0.12,0.22,0,0.381,0.142,-0.04,0,0,0.202,0.43,0,0.982,0.271,0.78,0,1,0.105,0.04,0,0,0.165,0.36,0,0.571
12987,20100411,-98.06,26.53,0.089,-0.22,0,0,0.118,0.2,0,0.256,0.141,-0.06,0,0,0.201,0.41,0,0.982,0.27,0.78,0,1,0.104,0.01,0,0,0.164,0.36,0,0.565
12987,20100412,-98.06,26.53,0.088,-0.24,0.018,0,0.117,0.19,0,0.131,0.139,-0.08,0,0,0.2,0.4,0,0.982,0.269,0.78,0,1,0.103,-0.01,0,0,0.163,0.35,0,0.571
12987,20100413,-98.06,26.53,0.098,0.03,0.018,0.107,0.121,0.36,0,0.125,0.138,-0.09,0,0,0.199,0.38,0,0.982,0.268,0.79,0,1,0.11,0.26,0,0.113,0.165,0.43,0,0.595
12987,20100414,-98.06,26.53,0.112,0.43,0.018,0.25,0.132,0.74,0,0.25,0.14,0.02,0,0.077,0.198,0.37,0,0.988,0.267,0.8,0,1,0.122,0.74,0,0.256,0.17,0.58,0,0.696
12987,20100415,-98.06,26.53,0.127,0.84,0.018,0.393,0.143,1.15,0,0.393,0.146,0.27,0,0.22,0.198,0.38,0,0.988,0.266,0.8,0,1,0.135,1.24,0,0.399,0.176,0.76,0,0.762
12987,20100416,-98.06,26.53,0.14,1.21,0.018,0.536,0.153,1.51,0,0.536,0.153,0.51,0,0.363,0.199,0.4,0,1,0.265,0.81,0,1,0.147,1.7,0,0.542,0.182,0.94,0,0.893
12987,20100417,-98.06,26.53,0.156,1.68,0.018,0.679,0.166,1.97,0,0.679,0.161,0.79,0,0.506,0.202,0.45,0,1,0.264,0.82,0,1,0.161,2.27,0,0.685,0.19,1.14,0,0.994
12987,20100418,-98.06,26.53,0.173,2.16,0.018,0.821,0.179,2.46,0,0.821,0.17,1.1,0,0.649,0.207,0.55,0,1,0.264,0.84,0,1,0.176,2.87,0,0.827,0.199,1.37,0,1
12987,20100419,-98.06,26.53,0.188,2.6,0,0.964,0.191,2.94,0,0.964,0.179,1.41,0,0.792,0.213,0.67,0,1,0.266,0.88,0,1,0.189,3.43,0,0.97,0.207,1.6,0,1
12987,20100420,-98.06,26.53,0.19,2.69,0,1,0.196,3.19,0,1,0.187,1.67,0,0.935,0.219,0.79,0,1,0.269,0.93,0,1,0.193,3.62,0,1,0.212,1.74,0,1
12987,20100421,-98.06,26.53,0.188,2.63,0,1,0.194,3.23,0,1,0.191,1.8,0,1,0.224,0.9,0,1,0.273,1,0,1,0.191,3.59,0,1,0.214,1.79,0,1
12987,20100422,-98.06,26.53,0.184,2.54,0,1,0.191,3.22,0,1,0.191,1.78,0,1,0.229,1.01,0,1,0.276,1.06,0,1,0.188,3.52,0,1,0.214,1.81,0,1
12987,20100423,-98.06,26.53,0.181,2.47,0,1,0.189,3.24,0,1,0.19,1.75,0,1,0.232,1.1,0,1,0.28,1.13,0,1,0.185,3.46,0,1,0.215,1.83,0,1
12987,20100424,-98.06,26.53,0.174,2.28,0,1,0.186,3.17,0,1,0.188,1.69,0,1,0.233,1.17,0,1,0.284,1.21,0,1,0.18,3.28,0,1,0.213,1.82,0,1
12987,20100425,-98.06,26.53,0.165,2.01,0,1,0.18,3.01,0,1,0.185,1.58,0,1,0.232,1.19,0,1,0.287,1.27,0,1,0.172,2.99,0,1,0.21,1.77,0,1
12987,20100426,-98.06,26.53,0.156,1.75,0,1,0.175,2.83,0,1,0.181,1.47,0,1,0.229,1.2,0,1,0.288,1.31,0,1,0.165,2.7,0,1,0.206,1.7,0,1
12987,20100427,-98.06,26.53,0.148,1.49,0,1,0.17,2.64,0,1,0.178,1.38,0,1,0.227,1.22,0,1,0.287,1.33,0,1,0.159,2.42,0,1,0.202,1.64,0,1
12987,20100428,-98.06,26.53,0.14,1.23,0,1,0.165,2.43,0,1,0.175,1.3,0,1,0.225,1.25,0,1,0.286,1.34,0,1,0.152,2.13,0,1,0.198,1.57,0,1
12987,20100429,-98.06,26.53,0.132,0.99,0,0.946,0.16,2.2,0,1,0.172,1.22,0,1,0.222,1.28,0,1,0.285,1.36,0,1,0.146,1.85,0,1,0.194,1.5,0,1
12987,20100430,-98.06,26.53,0.125,0.77,0,0.815,0.155,1.96,0,1,0.169,1.13,0,1,0.22,1.3,0,1,0.283,1.37,0,1,0.14,1.58,0,1,0.19,1.42,0,1
12987,20100501,-98.06,26.53,0.119,0.57,0,0.673,0.149,1.71,0,1,0.166,1.03,0,1,0.218,1.33,0,1,0.282,1.39,0,1,0.134,1.32,0,1,0.187,1.35,0,1
12987,20100502,-98.06,26.53,0.114,0.41,0,0.53,0.143,1.47,0,1,0.163,0.94,0,1,0.216,1.36,0,1,0.28,1.4,0,1,0.129,1.09,0,1,0.183,1.27,0,1
12987,20100503,-98.06,26.53,0.111,0.3,0,0.387,0.139,1.26,0,1,0.16,0.85,0,1,0.214,1.39,0,1,0.278,1.42,0,1,0.125,0.91,0,1,0.18,1.2,0,1
12987,20100504,-98.06,26.53,0.108,0.22,0,0.244,0.134,1.08,0,1,0.157,0.75,0,0.899,0.212,1.4,0,1,0.276,1.44,0,1,0.121,0.75,0,0.899,0.178,1.14,0,1
12987,20100505,-98.06,26.53,0.106,0.14,0,0.101,0.131,0.93,0,1,0.154,0.65,0,0.756,0.209,1.4,0,1,0.274,1.45,0,1,0.118,0.63,0,0.756,0.175,1.07,0,1
12987,20100506,-98.06,26.53,0.104,0.08,0,0.012,0.128,0.8,0,1,0.151,0.54,0,0.613,0.207,1.38,0,1,0.272,1.46,0,1,0.116,0.51,0,0.613,0.172,0.99,0,1
12987,20100507,-98.06,26.53,0.103,0.03,0,0,0.125,0.69,0,1,0.148,0.44,0,0.47,0.205,1.36,0,1,0.27,1.46,0,1,0.114,0.41,0,0.47,0.17,0.92,0,1
12987,20100508,-98.06,26.53,0.102,-0.02,0,0,0.123,0.6,0,0.976,0.145,0.34,0,0.327,0.203,1.31,0,1,0.267,1.45,0,1,0.112,0.32,0,0.327,0.168,0.84,0,1
12987,20100509,-98.06,26.53,0.101,-0.05,0,0,0.121,0.53,0,0.845,0.142,0.23,0,0.185,0.201,1.24,0,1,0.265,1.45,0,1,0.111,0.26,0,0.185,0.166,0.77,0,1
12987,20100510,-98.06,26.53,0.1,-0.08,0,0,0.12,0.46,0,0.702,0.138,0.12,0,0.042,0.198,1.16,0,1,0.262,1.45,0,1,0.11,0.2,0,0.042,0.164,0.7,0,1
12987,20100511,-98.06,26.53,0.1,-0.1,0,0,0.119,0.41,0,0.56,0.135,0.02,0.089,0,0.196,1.07,0,1,0.259,1.44,0,1,0.11,0.16,0,0,0.162,0.63,0,0.911
12987,20100512,-98.06,26.53,0.1,-0.11,0,0,0.119,0.37,0,0.417,0.133,-0.07,0.232,0,0.193,0.96,0,1,0.256,1.42,0,1,0.109,0.13,0,0,0.16,0.57,0,0.768
12987,20100513,-98.06,26.53,0.099,-0.12,0,0,0.118,0.33,0,0.274,0.13,-0.16,0.375,0,0.19,0.85,0,1,0.253,1.39,0,1,0.109,0.1,0,0,0.158,0.5,0,0.625
12987,20100514,-98.06,26.53,0.099,-0.13,0,0,0.117,0.29,0,0.131,0.128,-0.23,0.518,0,0.187,0.75,0,0.982,0.249,1.36,0,1,0.108,0.08,0,0,0.156,0.44,0,0.482
12987,20100515,-98.06,26.53,0.099,-0.14,0,0,0.117,0.25,0,0.012,0.127,-0.3,0.661,0,0.183,0.64,0,0.857,0.246,1.32,0,1,0.108,0.06,0,0,0.154,0.37,0,0.339
12987,20100516,-98.06,26.53,0.099,-0.15,0,0,0.116,0.21,0,0,0.125,-0.35,0.804,0,0.18,0.55,0,0.714,0.242,1.27,0,1,0.108,0.03,0,0,0.152,0.3,0,0.196
12987,20100517,-98.06,26.53,0.098,-0.16,0,0,0.116,0.16,0,0,0.124,-0.39,0.946,0,0.177,0.46,0,0.571,0.238,1.22,0,1,0.107,0.01,0,0,0.151,0.24,0,0.054
12987,20100518,-98.06,26.53,0.098,-0.16,0,0,0.116,0.12,0,0,0.123,-0.42,1,0,0.174,0.37,0,0.429,0.234,1.16,0,1,0.107,0,0,0,0.149,0.18,0,0
12987,20100519,-98.06,26.53,0.113,0.13,0,0.137,0.123,0.22,0,0.131,0.126,-0.37,0.869,0,0.172,0.29,0,0.286,0.231,1.11,0,1,0.118,0.2,0,0.137,0.153,0.26,0,0.137
12987,20100520,-98.06,26.53,0.123,0.34,0,0.28,0.131,0.34,0,0.274,0.129,-0.28,0.726,0,0.171,0.28,0,0.262,0.228,1.08,0,1,0.127,0.37,0,0.28,0.157,0.36,0,0.28
12987,20100521,-98.06,26.53,0.132,0.49,0,0.423,0.138,0.44,0,0.417,0.133,-0.2,0.583,0,0.172,0.3,0,0.28,0.226,1.05,0,1,0.135,0.5,0,0.423,0.16,0.44,0,0.423
12987,20100522,-98.06,26.53,0.139,0.61,0,0.565,0.144,0.53,0,0.56,0.137,-0.11,0.44,0,0.173,0.35,0,0.405,0.224,1.04,0,1,0.142,0.61,0,0.565,0.163,0.53,0,0.565
12987,20100523,-98.06,26.53,0.144,0.69,0,0.607,0.15,0.61,0,0.702,0.14,-0.04,0.298,0,0.174,0.4,0,0.548,0.223,1.03,0,1,0.147,0.69,0,0.667,0.166,0.6,0,0.708
12987,20100524,-98.06,26.53,0.149,0.76,0,0.607,0.154,0.68,0,0.726,0.143,0.02,0.155,0,0.176,0.46,0,0.69,0.222,1.01,0,1,0.151,0.76,0,0.667,0.169,0.66,0,0.821
12987,20100525,-98.06,26.53,0.152,0.81,0,0.607,0.158,0.73,0,0.726,0.145,0.07,0.012,0,0.178,0.53,0,0.833,0.221,1.01,0,1,0.155,0.81,0,0.667,0.171,0.71,0,0.821
12987,20100526,-98.06,26.53,0.141,0.56,0,0.47,0.153,0.64,0,0.595,0.144,0.04,0,0,0.18,0.6,0,0.976,0.221,1.01,0,1,0.147,0.63,0,0.53,0.168,0.61,0,0.685
12987,20100527,-98.06,26.53,0.132,0.38,0,0.327,0.147,0.52,0,0.452,0.142,-0.02,0,0,0.18,0.61,0,1,0.22,1.01,0,1,0.14,0.48,0,0.387,0.164,0.5,0,0.542
12987,20100528,-98.06,26.53,0.125,0.24,0,0.185,0.141,0.41,0,0.31,0.139,-0.08,0.06,0,0.179,0.59,0,1,0.219,0.99,0,1,0.133,0.35,0,0.244,0.161,0.41,0,0.399
12987,20100529,-98.06,26.53,0.12,0.14,0,0.042,0.136,0.32,0,0.167,0.136,-0.14,0.179,0,0.178,0.55,0,0.958,0.218,0.97,0,1,0.128,0.24,0,0.101,0.158,0.32,0,0.256
12987,20100530,-98.06,26.53,0.116,0.06,0,0,0.132,0.23,0,0.024,0.134,-0.19,0.304,0,0.176,0.5,0,0.815,0.217,0.93,0,1,0.124,0.16,0,0,0.155,0.24,0,0.113
12987,20100531,-98.06,26.53,0.113,0,0,0,0.128,0.16,0,0,0.132,-0.23,0.446,0,0.173,0.44,0.006,0.673,0.215,0.9,0,1,0.12,0.08,0,0,0.152,0.17,0,0
12987,20100601,-98.06,26.53,0.11,-0.05,0,0,0.125,0.11,0,0,0.13,-0.26,0.589,0,0.171,0.38,0.012,0.53,0.214,0.85,0,1,0.118,0.03,0,0,0.15,0.11,0,0
12987,20100602,-98.06,26.53,0.108,-0.08,0,0,0.123,0.07,0,0,0.128,-0.28,0.732,0,0.169,0.31,0.018,0.387,0.212,0.79,0,1,0.115,0,0,0,0.148,0.07,0,0
12987,20100603,-98.06,26.53,0.11,-0.04,0,0.042,0.122,0.07,0,0.018,0.127,-0.3,0.875,0,0.166,0.25,0.018,0.244,0.209,0.72,0,1,0.116,0.02,0,0.042,0.147,0.05,0,0.036
12987,20100604,-98.06,26.53,0.119,0.12,0,0.185,0.124,0.12,0,0.048,0.125,-0.31,0.958,0,0.164,0.2,0.018,0.101,0.207,0.67,0,1,0.122,0.13,0,0.185,0.148,0.09,0,0.054
12987,20100605,-98.06,26.53,0.125,0.23,0,0.327,0.126,0.16,0,0.048,0.124,-0.32,0.982,0,0.163,0.16,0.018,0,0.206,0.62,0,1,0.125,0.21,0,0.327,0.149,0.11,0,0.054
12987,20100606,-98.06,26.53,0.129,0.31,0,0.435,0.127,0.19,0,0.048,0.123,-0.32,0.994,0,0.161,0.12,0.018,0,0.204,0.58,0,1,0.128,0.27,0,0.387,0.149,0.13,0,0.054
12987,20100607,-98.06,26.53,0.131,0.37,0,0.44,0.127,0.22,0,0.048,0.122,-0.31,0.976,0,0.16,0.1,0.018,0,0.203,0.54,0,1,0.129,0.31,0,0.387,0.149,0.14,0,0.054
12987,20100608,-98.06,26.53,0.134,0.43,0,0.464,0.128,0.24,0,0.06,0.122,-0.3,0.929,0,0.159,0.08,0.012,0,0.202,0.51,0,1,0.131,0.36,0,0.411,0.149,0.16,0,0.054
12987,20100609,-98.06,26.53,0.147,0.65,0,0.607,0.134,0.38,0,0.202,0.123,-0.27,0.827,0,0.158,0.07,0.006,0,0.202,0.49,0,1,0.141,0.54,0,0.554,0.153,0.25,0,0.196
12987,20100610,-98.06,26.53,0.151,0.72,0,0.708,0.139,0.48,0,0.327,0.125,-0.22,0.685,0,0.157,0.05,0.006,0,0.201,0.48,0,1,0.145,0.62,0,0.655,0.155,0.31,0,0.292
12987,20100611,-98.06,26.53,0.147,0.65,0,0.708,0.14,0.52,0,0.44,0.126,-0.17,0.542,0,0.157,0.04,0.006,0,0.201,0.47,0,1,0.143,0.59,0,0.655,0.154,0.3,0,0.286
12987,20100612,-98.06,26.53,0.143,0.59,0,0.583,0.141,0.55,0,0.577,0.128,-0.13,0.399,0,0.156,0.04,0.006,0,0.201,0.46,0,1,0.142,0.57,0,0.56,0.154,0.31,0,0.286
12987,20100613,-98.06,26.53,0.141,0.56,0,0.476,0.142,0.56,0,0.607,0.129,-0.1,0.262,0,0.156,0.03,0.012,0,0.201,0.45,0,0.994,0.141,0.55,0,0.5,0.154,0.31,0,0.286
12987,20100614,-98.06,26.53,0.14,0.55,0,0.47,0.142,0.56,0,0.607,0.13,-0.08,0.137,0,0.155,0.02,0.006,0,0.201,0.43,0,0.881,0.141,0.55,0,0.5,0.154,0.31,0,0.286
12987,20100615,-98.06,26.53,0.138,0.52,0,0.446,0.142,0.56,0,0.595,0.131,-0.06,0.042,0,0.155,0.02,0.006,0,0.201,0.42,0,0.738,0.14,0.53,0,0.476,0.153,0.3,0,0.286
12987,20100616,-98.06,26.53,0.126,0.33,0,0.304,0.136,0.44,0,0.452,0.13,-0.07,0,0,0.155,0.02,0.006,0,0.2,0.38,0,0.595,0.131,0.37,0,0.333,0.149,0.22,0,0.143
12987,20100617,-98.06,26.53,0.118,0.21,0,0.161,0.13,0.33,0,0.31,0.128,-0.1,0,0,0.154,0,0.012,0,0.199,0.35,0,0.452,0.124,0.26,0,0.19,0.146,0.15,0,0.012
12987,20100618,-98.06,26.53,0.114,0.14,0,0.018,0.126,0.24,0,0.167,0.126,-0.13,0.012,0,0.153,-0.01,0.018,0,0.198,0.31,0,0.31,0.12,0.18,0,0.048,0.143,0.1,0,0
12987,20100619,-98.06,26.53,0.112,0.1,0,0,0.122,0.17,0,0.03,0.124,-0.16,0.03,0,0.152,-0.02,0.024,0,0.197,0.26,0,0.167,0.117,0.13,0,0,0.141,0.06,0,0
12987,20100620,-98.06,26.53,0.11,0.07,0,0,0.12,0.13,0,0,0.123,-0.19,0.101,0,0.15,-0.04,0.024,0,0.196,0.22,0,0.03,0.115,0.1,0,0,0.14,0.03,0,0
12987,20100621,-98.06,26.53,0.109,0.04,0,0,0.119,0.12,0,0,0.121,-0.22,0.232,0,0.149,-0.05,0.024,0,0.195,0.18,0,0,0.114,0.08,0,0,0.139,0,0,0
12987,20100622,-98.06,26.53,0.108,0.02,0,0,0.118,0.11,0,0,0.12,-0.24,0.375,0,0.148,-0.07,0.03,0,0.193,0.15,0,0,0.113,0.07,0,0,0.138,-0.03,0,0
12987,20100623,-98.06,26.53,0.107,0,0,0,0.118,0.11,0,0,0.119,-0.27,0.518,0,0.146,-0.09,0.036,0,0.192,0.12,0,0,0.112,0.05,0,0,0.137,-0.06,0,0
12987,20100624,-98.06,26.53,0.106,-0.02,0,0,0.117,0.11,0,0,0.119,-0.29,0.661,0,0.146,-0.09,0.03,0,0.191,0.1,0,0,0.112,0.04,0,0,0.136,-0.09,0,0
12987,20100625,-98.06,26.53,0.105,-0.05,0,0,0.117,0.11,0,0,0.118,-0.31,0.792,0,0.145,-0.1,0.024,0,0.19,0.07,0,0,0.111,0.02,0,0,0.135,-0.12,0,0
12987,20100626,-98.06,26.53,0.103,-0.07,0,0,0.117,0.11,0,0,0.117,-0.33,0.917,0,0.144,-0.11,0.024,0,0.188,0.05,0,0,0.11,0.01,0,0,0.134,-0.15,0.006,0
12987,20100627,-98.06,26.53,0.102,-0.09,0,0,0.116,0.11,0,0,0.117,-0.35,0.988,0,0.144,-0.12,0.018,0,0.187,0.03,0,0,0.109,-0.01,0,0,0.133,-0.18,0.006,0
12987,20100628,-98.06,26.53,0.101,-0.11,0,0,0.116,0.11,0,0,0.116,-0.36,1,0,0.143,-0.13,0.018,0,0.186,0,0,0,0.108,-0.02,0,0,0.132,-0.21,0.006,0
12987,20100629,-98.06,26.53,0.1,-0.13,0,0,0.115,0.11,0,0,0.116,-0.37,1,0,0.143,-0.14,0.012,0,0.185,-0.02,0,0,0.108,-0.03,0,0,0.132,-0.23,0.006,0
12987,20100630,-98.06,26.53,0.102,-0.08,0,0.03,0.115,0.11,0,0,0.115,-0.39,1,0,0.142,-0.14,0.036,0,0.184,-0.03,0,0,0.109,-0.01,0,0.006,0.132,-0.23,0.006,0
12987,20100701,-98.06,26.53,0.124,0.28,0,0.173,0.13,0.44,0,0.119,0.126,-0.2,0.893,0.089,0.152,-0.02,0.054,0.083,0.186,-0.01,0,0.024,0.127,0.33,0,0.149,0.144,-0.02,0.006,0.107
12987,20100702,-98.06,26.53,0.14,0.56,0,0.315,0.144,0.76,0,0.262,0.14,0.07,0.75,0.232,0.168,0.2,0.054,0.226,0.2,0.17,0,0.167,0.142,0.61,0,0.292,0.159,0.25,0.006,0.25
12987,20100703,-98.06,26.53,0.153,0.79,0,0.458,0.156,1.02,0,0.405,0.152,0.29,0.607,0.375,0.183,0.39,0.048,0.369,0.217,0.39,0,0.31,0.155,0.85,0,0.435,0.172,0.51,0,0.393
12987,20100704,-98.06,26.53,0.164,0.99,0,0.601,0.167,1.25,0,0.548,0.163,0.5,0.464,0.518,0.197,0.58,0.048,0.512,0.233,0.6,0,0.452,0.165,1.05,0,0.577,0.185,0.75,0,0.536
12987,20100705,-98.06,26.53,0.173,1.16,0,0.744,0.176,1.46,0,0.69,0.174,0.69,0.321,0.661,0.21,0.75,0.048,0.655,0.25,0.82,0,0.595,0.174,1.24,0,0.72,0.197,0.97,0,0.679
12987,20100706,-98.06,26.53,0.181,1.32,0,0.887,0.185,1.67,0,0.833,0.184,0.87,0.179,0.804,0.223,0.92,0.048,0.798,0.265,1.03,0,0.738,0.183,1.41,0,0.863,0.208,1.19,0,0.821
12987,20100707,-98.06,26.53,0.184,1.39,0,1,0.193,1.87,0,0.976,0.193,1.06,0.036,0.946,0.236,1.08,0.018,0.94,0.28,1.24,0,0.881,0.188,1.53,0,1,0.217,1.38,0,0.964
12987,20100708,-98.06,26.53,0.17,1.18,0,1,0.185,1.72,0,1,0.192,1.03,0,1,0.238,1.11,0,1,0.293,1.41,0,1,0.177,1.36,0,1,0.215,1.37,0,1
12987,20100709,-98.06,26.53,0.17,1.23,0,1,0.181,1.71,0,1,0.187,0.97,0,1,0.233,1.04,0,1,0.293,1.43,0,1,0.175,1.37,0,1,0.213,1.35,0,1
12987,20100710,-98.06,26.53,0.173,1.36,0,1,0.184,1.87,0,1,0.189,1.04,0,1,0.234,1.06,0,1,0.291,1.44,0,1,0.178,1.51,0,1,0.214,1.42,0,1
12987,20100711,-98.06,26.53,0.175,1.46,0,1,0.185,2.01,0,1,0.191,1.1,0,1,0.235,1.09,0,1,0.292,1.48,0,1,0.18,1.62,0,1,0.215,1.48,0,1
12987,20100712,-98.06,26.53,0.176,1.55,0,1,0.186,2.15,0,1,0.192,1.17,0,1,0.236,1.12,0,1,0.293,1.52,0,1,0.181,1.73,0,1,0.216,1.54,0,1
12987,20100713,-98.06,26.53,0.177,1.63,0,1,0.187,2.28,0,1,0.193,1.23,0,1,0.236,1.16,0,1,0.293,1.57,0,1,0.182,1.85,0,1,0.217,1.6,0,1
12987,20100714,-98.06,26.53,0.178,1.71,0,1,0.188,2.4,0,1,0.194,1.28,0,1,0.237,1.19,0,1,0.294,1.61,0,1,0.183,1.97,0,1,0.218,1.65,0,1
12987,20100715,-98.06,26.53,0.176,1.73,0,1,0.188,2.52,0,1,0.194,1.34,0,1,0.238,1.23,0,1,0.295,1.65,0,1,0.182,2.05,0,1,0.218,1.69,0,1
12987,20100716,-98.06,26.53,0.165,1.57,0,1,0.184,2.51,0,1,0.194,1.37,0,1,0.238,1.27,0,1,0.295,1.7,0,1,0.175,1.97,0,1,0.215,1.68,0,1
12987,20100717,-98.06,26.53,0.153,1.36,0,1,0.175,2.38,0,1,0.188,1.3,0,1,0.234,1.24,0,1,0.294,1.72,0,1,0.164,1.81,0,1,0.209,1.6,0,1
12987,20100718,-98.06,26.53,0.144,1.22,0,1,0.168,2.3,0,1,0.184,1.26,0,1,0.23,1.23,0,1,0.291,1.72,0,1,0.156,1.69,0,1,0.203,1.54,0,1
12987,20100719,-98.06,26.53,0.137,1.1,0,1,0.162,2.24,0,1,0.18,1.23,0,1,0.226,1.23,0,1,0.289,1.74,0,1,0.15,1.58,0,1,0.199,1.5,0,1
12987,20100720,-98.06,26.53,0.13,1,0,1,0.157,2.19,0,1,0.177,1.2,0,1,0.223,1.24,0,1,0.286,1.77,0,1,0.144,1.48,0,1,0.195,1.48,0,1
12987,20100721,-98.06,26.53,0.125,0.91,0,1,0.151,2.13,0,1,0.174,1.17,0,1,0.22,1.25,0,1,0.283,1.8,0,1,0.138,1.39,0,1,0.191,1.47,0,1
12987,20100722,-98.06,26.53,0.121,0.85,0,1,0.147,2.08,0,1,0.171,1.15,0,1,0.217,1.28,0,1,0.28,1.85,0,1,0.134,1.32,0,1,0.187,1.48,0,1
12987,20100723,-98.06,26.53,0.117,0.8,0,1,0.142,2.03,0,1,0.167,1.12,0,1,0.214,1.3,0,1,0.277,1.91,0,1,0.13,1.27,0,1,0.184,1.49,0,1
12987,20100724,-98.06,26.53,0.114,0.76,0,1,0.138,1.97,0,1,0.164,1.09,0,1,0.212,1.33,0,1,0.275,1.98,0,1,0.126,1.23,0,1,0.181,1.51,0,1
12987,20100725,-98.06,26.53,0.112,0.74,0,1,0.135,1.92,0,1,0.161,1.05,0,1,0.21,1.37,0,1,0.272,2.06,0,1,0.124,1.21,0,1,0.178,1.54,0,1
12987,20100726,-98.06,26.53,0.111,0.73,0,1,0.132,1.86,0,1,0.158,1.02,0,1,0.207,1.39,0,1,0.27,2.13,0,1,0.122,1.22,0,1,0.176,1.58,0,1
12987,20100727,-98.06,26.53,0.11,0.73,0,1,0.13,1.81,0,1,0.156,0.98,0,1,0.205,1.42,0,1,0.267,2.2,0,1,0.12,1.22,0,1,0.174,1.62,0,1
12987,20100728,-98.06,26.53,0.109,0.73,0,1,0.128,1.77,0,1,0.153,0.94,0,1,0.203,1.45,0,1,0.265,2.28,0,1,0.119,1.24,0,1,0.172,1.66,0,1
12987,20100729,-98.06,26.53,0.109,0.73,0,1,0.127,1.73,0,1,0.151,0.9,0,1,0.201,1.48,0,1,0.264,2.35,0,1,0.118,1.26,0,1,0.17,1.7,0,1
12987,20100730,-98.06,26.53,0.109,0.75,0,1,0.126,1.72,0,1,0.148,0.86,0,1,0.2,1.5,0,1,0.262,2.41,0,1,0.117,1.3,0,1,0.169,1.74,0,1
12987,20100731,-98.06,26.53,0.109,0.78,0,1,0.125,1.71,0,1,0.146,0.81,0,1,0.198,1.5,0,1,0.26,2.43,0,1,0.117,1.34,0,1,0.168,1.78,0,1
12987,20100801,-98.06,26.53,0.109,0.79,0,1,0.125,1.7,0,1,0.144,0.75,0,0.976,0.196,1.48,0,1,0.258,2.46,0,1,0.117,1.38,0,1,0.166,1.8,0,1
12987,20100802,-98.06,26.53,0.109,0.8,0,1,0.124,1.69,0,1,0.142,0.68,0,0.875,0.194,1.46,0,1,0.256,2.47,0,1,0.117,1.39,0,1,0.165,1.8,0,1
12987,20100803,-98.06,26.53,0.109,0.8,0,1,0.124,1.69,0,1,0.14,0.61,0,0.732,0.192,1.43,0,1,0.254,2.47,0,1,0.116,1.41,0,1,0.164,1.8,0,1
12987,20100804,-98.06,26.53,0.108,0.79,0,1,0.124,1.69,0,1,0.138,0.55,0,0.589,0.19,1.39,0,1,0.252,2.46,0,1,0.116,1.4,0,1,0.162,1.79,0,1
12987,20100805,-98.06,26.53,0.108,0.79,0,1,0.124,1.71,0,1,0.136,0.47,0,0.446,0.188,1.35,0,1,0.25,2.44,0,1,0.116,1.41,0,1,0.161,1.77,0,1
12987,20100806,-98.06,26.53,0.107,0.78,0,1,0.123,1.72,0,1,0.134,0.4,0,0.304,0.186,1.29,0,1,0.247,2.41,0,1,0.115,1.39,0,1,0.159,1.73,0,1
12987,20100807,-98.06,26.53,0.106,0.75,0,1,0.123,1.73,0,1,0.132,0.34,0,0.161,0.183,1.23,0,1,0.245,2.38,0,1,0.115,1.36,0,1,0.158,1.68,0,1
12987,20100808,-98.06,26.53,0.105,0.72,0,1,0.123,1.74,0,1,0.13,0.28,0,0.042,0.181,1.17,0,1,0.242,2.32,0,1,0.114,1.32,0,1,0.156,1.62,0,1
12987,20100809,-98.06,26.53,0.104,0.69,0,1,0.123,1.76,0,1,0.129,0.23,0,0,0.178,1.1,0,1,0.239,2.26,0,1,0.114,1.28,0,1,0.155,1.56,0,1
12987,20100810,-98.06,26.53,0.104,0.67,0,1,0.122,1.77,0,1,0.128,0.19,0,0,0.176,1.02,0,1,0.236,2.18,0,1,0.113,1.24,0,1,0.153,1.49,0,1